TimeEST,TemperatureF,Dew PointF,Humidity,Sea Level PressureIn,VisibilityMPH,Wind Direction,Wind SpeedMPH,Gust SpeedMPH,PrecipitationIn,Events,Conditions,WindDirDegrees,DateUTC
12:55 AM,25.9,20.8,81,30.22,10.0,SSW,15.0,-,N/A,,Overcast,210,2012-12-31 05:55:00
1:55 AM,27.0,22.1,82,30.20,10.0,SSW,13.8,-,N/A,,Clear,210,2012-12-31 06:55:00
2:55 AM,28.4,23.7,83,30.18,10.0,SW,18.4,-,N/A,,Partly Cloudy,220,2012-12-31 07:55:00
3:55 AM,28.4,23.7,83,30.18,10.0,SW,17.3,-,N/A,,Mostly Cloudy,220,2012-12-31 08:55:00
4:55 AM,28.4,22.5,78,30.16,10.0,SW,15.0,-,N/A,,Clear,220,2012-12-31 09:55:00
5:55 AM,29.3,22.8,77,30.15,10.0,SW,15.0,-,N/A,,Clear,230,2012-12-31 10:55:00
6:55 AM,29.5,22.8,76,30.14,10.0,SW,15.0,-,N/A,,Clear,230,2012-12-31 11:55:00
7:55 AM,29.8,23.2,76,30.12,10.0,SW,16.1,-,N/A,,Partly Cloudy,220,2012-12-31 12:55:00
8:55 AM,30.2,23.7,77,30.13,10.0,SW,15.0,-,N/A,,Scattered Clouds,230,2012-12-31 13:55:00
9:55 AM,31.5,24.8,76,30.13,10.0,SW,16.1,-,N/A,,Scattered Clouds,230,2012-12-31 14:55:00
10:29 AM,32.0,24.8,75,30.09,10.0,SW,16.1,-,N/A,,Overcast,230,2012-12-31 15:29:00
10:55 AM,32.0,25.3,76,30.13,10.0,SW,16.1,-,N/A,,Overcast,230,2012-12-31 15:55:00
11:55 AM,32.7,25.9,76,30.12,10.0,WSW,16.1,-,N/A,,Overcast,240,2012-12-31 16:55:00
12:18 PM,33.8,26.6,75,30.11,6.0,WSW,16.1,-,N/A,Snow,Light Snow,240,2012-12-31 17:18:00
12:30 PM,33.8,26.6,75,30.09,6.0,WSW,16.1,-,N/A,Snow,Light Snow,240,2012-12-31 17:30:00
12:55 PM,33.6,26.2,74,30.09,6.0,WSW,15.0,-,0.00,Snow,Light Snow,250,2012-12-31 17:55:00
1:15 PM,32.0,28.4,87,30.09,1.5,WSW,15.0,-,N/A,Snow,Light Snow,240,2012-12-31 18:15:00
1:33 PM,32.0,28.4,87,30.08,2.5,WSW,17.3,-,N/A,Snow,Light Snow,240,2012-12-31 18:33:00
2:55 PM,32.0,30.2,93,30.07,5.0,WSW,17.3,-,N/A,Snow,Light Snow,240,2012-12-31 19:55:00
3:55 PM,31.8,30.6,95,30.06,10.0,WSW,15.0,-,0.00,Snow,Light Snow,240,2012-12-31 20:55:00
5:55 PM,31.8,30.7,96,30.07,10.0,WSW,16.1,-,0.00,,Overcast,240,2012-12-31 22:55:00
6:55 PM,31.8,30.6,95,30.06,10.0,WSW,12.7,-,0.00,Snow,Light Snow,250,2012-12-31 23:55:00
7:55 PM,31.8,30.7,96,30.08,10.0,WSW,12.7,-,0.00,,Overcast,240,2013-01-01 00:55:00
8:55 PM,31.6,30.6,96,30.06,-9999.0,West,11.5,-,0.00,Snow,Light Snow,260,2013-01-01 01:55:00
9:55 PM,31.3,30.6,97,30.06,10.0,WNW,9.2,-,0.00,,Overcast,300,2013-01-01 02:55:00
10:55 PM,30.0,28.4,94,30.09,10.0,WNW,8.1,-,N/A,,Overcast,290,2013-01-01 03:55:00